Location: Table Mountain
(47.2500°N, 120.5778°W)
Time: 03:41:23
(UTC-07:00)

Tiangong 2 - Pass Details

Date: 14 October 2017
Orbit: 388 x 392 km, 42.8° (Epoch: 19 October)

Event Time Altitude Azimuth Distance (km) Brightness Sun altitude
Exits shadow 06:35:30 10° 254° (WSW) 1,410 3.3 -8.3°
Maximum altitude 06:38:24 33° 188° (S) 680 2.3 -7.8°
Drops below altitude 10° 06:41:19 10° 122° (ESE) 1,416 5.0 -7.3°
Sets 06:43:30 0° 113° (ESE) 2,271 6.7 -6.9°
